Regional Weather Roundup
Issued by NWS

Home | Current Version | Previous Version | Text Only | Print | Product List | Glossary On
Versions: 1 2 3 4 5 6 7 8 9 10 11 12 13 14 15 16 17 18 19 20 21 22 23 24 25 26 27 28 29 30 31 32 33 34 35 36 37 38 39 40 41 42 43 44 45 46 47 48 49 50
000
ASUS43 KTOP 190008
RWRKS

WEATHER ROUNDUP FOR KANSAS
NATIONAL WEATHER SERVICE GOODLAND KS
700 PM CDT FRI APR 18 2014

NOTE:  "FAIR" INDICATES FEW OR NO CLOUDS BELOW 12,000 FEET WITH NO
SIGNIFICANT WEATHER AND/OR OBSTRUCTIONS TO VISIBILITY.

KSZ001>006-013>018-027>032-041>047-190100-
NORTHWEST KANSAS

CITY           SKY/WX    TMP DP  RH WIND       PRES   REMARKS
GOODLAND       SUNNY     72  42  34 S28G37    29.90F
6HR MIN TEMP:  65; 6HR MAX TEMP:  76;

HAYS           SUNNY     70  43  37 S24G32    30.00F
HILL CITY      SUNNY     72  41  32 S24G31    29.96F
6HR MIN TEMP:  66; 6HR MAX TEMP:  75;

RUSSELL        SUNNY     69  42  37 S26G32    30.00F
6HR MIN TEMP:  67; 6HR MAX TEMP:  72;

$$

KSZ061>065-074>080-084>089-190100-
SOUTHWEST KANSAS

CITY           SKY/WX    TMP DP  RH WIND       PRES   REMARKS
DODGE CITY     SUNNY     69  39  33 S25G32    30.02S
6HR MIN TEMP:  61; 6HR MAX TEMP:  71;

ELKHART          N/A     73  41  31 S20         N/A
GARDEN CITY    SUNNY     67  42  40 S22G32    29.98F
6HR MIN TEMP:  60; 6HR MAX TEMP:  71;

GREAT BEND     SUNNY     70  43  37 S26G32    30.02F
LIBERAL        SUNNY     70  43  37 S24G31    30.00F
PRATT          SUNNY     68  41  37 S20G25    30.07S
$$

KSZ066>073-081>083-090>101-190100-
SOUTHEAST KANSAS

CITY           SKY/WX    TMP DP  RH WIND       PRES   REMARKS
CHANUTE        SUNNY     68  41  37 S8        30.14F
6HR MIN TEMP:  65; 6HR MAX TEMP:  71;

COFFEYVILLE    SUNNY     70  41  34 SE7       30.13F
6HR MIN TEMP:  67; 6HR MAX TEMP:  73;

HUTCHINSON     SUNNY     69  41  36 S21       30.07F
6HR MIN TEMP:  65; 6HR MAX TEMP:  72;

MEDICINE LODGE   N/A     70  42  36 S13G24    30.06F
NEWTON         SUNNY     68  39  34 S13G20    30.12F
PARSONS        SUNNY     71  38  29 S7        30.15F
6HR MIN TEMP:  67; 6HR MAX TEMP:  73;

WICHITA INTL   MOSUNNY   70  41  34 S17       30.09F
6HR MIN TEMP:  64; 6HR MAX TEMP:  72;

WICHITA JABRA  SUNNY     69  41  36 SE16      30.09F
6HR MIN TEMP:  64; 6HR MAX TEMP:  72;

WICHITA MCCONL SUNNY     70  41  34 SE18      30.10F
WINFIELD       SUNNY     68  42  38 S12       30.12F
6HR MIN TEMP:  66; 6HR MAX TEMP:  72;

$$

KSZ007>012-019>026-033>040-048>060-102>105-190100-
NORTHEAST KANSAS

CITY           SKY/WX    TMP DP  RH WIND       PRES   REMARKS
CONCORDIA      MOSUNNY   68  42  38 S20G26    30.05F
6HR MIN TEMP:  64; 6HR MAX TEMP:  72;

EMPORIA        MOSUNNY   67  40  37 S13       30.11F
6HR MIN TEMP:  63; 6HR MAX TEMP:  69;

LAWRENCE       MOSUNNY   68  39  34 SE14      30.14F
6HR MIN TEMP:  64; 6HR MAX TEMP:  70;

MANHATTAN      SUNNY     69  41  36 S13       30.09
6HR MIN TEMP:  65; 6HR MAX TEMP:  71;

OLATHE IND     SUNNY     65  41  41 SE13      30.16F
6HR MIN TEMP:  62; 6HR MAX TEMP:  68;

OLATHE EXE     SUNNY     65  41  41 S9        30.15F
6HR MIN TEMP:  61; 6HR MAX TEMP:  66;

SALINA         MOSUNNY   70  42  36 S21G31    30.07F
6HR MIN TEMP:  67; 6HR MAX TEMP:  73; 6HR PCP: TRACE;

TOPEKA BILLARD MOSUNNY   68  41  37 SE13      30.13F
6HR MIN TEMP:  63; 6HR MAX TEMP:  70;

TOPEKA FORBES  MOSUNNY   67  39  35 SE15      30.13F
6HR MIN TEMP:  63; 6HR MAX TEMP:  70;

$$



USA.gov is the U.S. government's official web portal to all federal, state and local government web resources and services.